Track RESURS DK-1 now! 10-day predictions RESURS DK-1 is classified as:
1 29228U 06021A 26247.08771848 .00001118 00000-0 68434-4 0 9996 2 29228 69.9309 135.2691 0005577 222.1238 137.9500 15.13479334114519